When you browse on this site, cookies collect data to enhance your experience and personalize the content and advertising you see.
Visit our Privacy Policy to learn more. By continuing to use the site, you agree to this use of cookies and data.
  • In Hungary
  • List of Countries
  • For 7 days
  • Water Temperature
  • Satellite Maps
  • Weather Map
  • News
  • Weather Widgets
  • user-avatar
    Login

    Hourly Weather Bindura

    Today, 26 April, Friday

    Time Temperature Precipitation Wind Pressure Humidity
    00:00 +17°C° 0 mm 0 mps 668 mmHg 78%
    01:00 +17°C° 0 mm 0 mps 668 mmHg 80%
    02:00 +17°C° 0 mm 0 mps 668 mmHg 80%
    03:00 +16°C° 0 mm 0 mps 668 mmHg 82%
    04:00 +16°C° 0 mm 0 mps 668 mmHg 84%
    05:00 +16°C° 0 mm 0 mps 668 mmHg 85%
    06:00 +18°C° 0 mm 0 mps 668 mmHg 79%
    07:00 +19°C° 0 mm 0 mps 669 mmHg 73%
    08:00 +21°C° 0 mm 0 mps 670 mmHg 67%
    09:00 +25°C° 0 mm 1 mps 670 mmHg 58%
    10:00 +28°C° 0 mm 1 mps 670 mmHg 49%
    11:00 +30°C° 0 mm 1 mps 671 mmHg 40%
    12:00 +30°C° 0 mm 2 mps 670 mmHg 38%
    13:00 +31°C° 0 mm 2 mps 670 mmHg 35%
    14:00 +32°C° 0 mm 2 mps 669 mmHg 32%
    15:00 +31°C° 0 mm 1 mps 669 mmHg 38%
    16:00 +29°C° 0 mm 1 mps 668 mmHg 43%
    17:00 +28°C° 0 mm 1 mps 668 mmHg 48%
    18:00 +26°C° 0 mm 1 mps 668 mmHg 51%
    19:00 +25°C° 0 mm 1 mps 668 mmHg 54%
    20:00 +21°C° 0 mm 0 mps 668 mmHg 57%
    21:00 +20°C° 0 mm 0 mps 668 mmHg 60%
    22:00 +20°C° 0 mm 0 mps 668 mmHg 62%
    23:00 +19°C° 0 mm 0 mps 669 mmHg 65%

    Tomorrow, 27 April, Saturday

    Time Temperature Precipitation Wind Pressure Humidity
    00:00 +19°C° 0 mm 0 mps 669 mmHg 69%
    01:00 +18°C° 0 mm 0 mps 669 mmHg 74%
    02:00 +18°C° 0 mm 0 mps 669 mmHg 78%
    03:00 +18°C° 0 mm 0 mps 669 mmHg 81%
    04:00 +17°C° 0 mm 0 mps 668 mmHg 85%
    05:00 +17°C° 0 mm 0 mps 668 mmHg 88%
    06:00 +18°C° 0 mm 0 mps 669 mmHg 82%
    07:00 +20°C° 0 mm 0 mps 670 mmHg 76%
    08:00 +22°C° 0 mm 0 mps 670 mmHg 70%
    09:00 +24°C° 0 mm 0 mps 671 mmHg 61%
    10:00 +28°C° 0 mm 1 mps 671 mmHg 52%
    11:00 +30°C° 0 mm 1 mps 672 mmHg 43%
    12:00 +31°C° 0 mm 1 mps 671 mmHg 40%
    13:00 +31°C° 0 mm 1 mps 671 mmHg 37%
    14:00 +32°C° 0 mm 1 mps 670 mmHg 34%
    15:00 +31°C° 0 mm 1 mps 670 mmHg 39%
    16:00 +29°C° 0 mm 1 mps 669 mmHg 45%
    17:00 +28°C° 0 mm 2 mps 669 mmHg 50%
    18:00 +26°C° 0 mm 1 mps 669 mmHg 54%
    19:00 +25°C° 0 mm 1 mps 669 mmHg 57%
    20:00 +24°C° 0 mm 1 mps 669 mmHg 61%
    21:00 +23°C° 0 mm 1 mps 670 mmHg 66%
    22:00 +22°C° 0 mm 1 mps 670 mmHg 72%
    23:00 +19°C° 0 mm 0 mps 670 mmHg 77%

    Day after tomorrow, 28 April, Sunday

    Time Temperature Precipitation Wind Pressure Humidity
    00:00 +18°C° 0 mm 0 mps 670 mmHg 80%
    01:00 +18°C° 0 mm 0 mps 670 mmHg 82%
    02:00 +18°C° 0 mm 0 mps 670 mmHg 85%
    03:00 +17°C° 0 mm 0 mps 670 mmHg 87%
    04:00 +16°C° 0 mm 0 mps 670 mmHg 90%
    05:00 +16°C° 0 mm 0 mps 670 mmHg 92%
    06:00 +17°C° 0 mm 0 mps 670 mmHg 86%
    07:00 +19°C° 0 mm 0 mps 671 mmHg 79%
    08:00 +21°C° 0 mm 0 mps 672 mmHg 73%
    09:00 +24°C° 0 mm 1 mps 672 mmHg 65%
    10:00 +26°C° 0 mm 1 mps 673 mmHg 57%
    11:00 +28°C° 0 mm 2 mps 673 mmHg 48%
    12:00 +29°C° 0 mm 2 mps 672 mmHg 46%
    13:00 +29°C° 0 mm 2 mps 672 mmHg 43%
    14:00 +30°C° 0 mm 2 mps 671 mmHg 41%
    15:00 +29°C° 0 mm 1 mps 671 mmHg 45%
    16:00 +28°C° 0 mm 1 mps 670 mmHg 50%
    17:00 +27°C° 0 mm 1 mps 670 mmHg 54%
    18:00 +25°C° 0 mm 1 mps 670 mmHg 59%
    19:00 +23°C° 0 mm 1 mps 670 mmHg 63%
    20:00 +22°C° 0 mm 1 mps 671 mmHg 67%
    21:00 +21°C° 0 mm 1 mps 671 mmHg 70%
    22:00 +18°C° 0 mm 0 mps 671 mmHg 72%
    23:00 +18°C° 0 mm 0 mps 671 mmHg 75%

    29 April, Monday

    Time Temperature Precipitation Wind Pressure Humidity
    00:00 +17°C° 0 mm 0 mps 671 mmHg 78%
    01:00 +16°C° 0 mm 0 mps 671 mmHg 80%
    02:00 +15°C° 0 mm 0 mps 671 mmHg 83%
    03:00 +15°C° 0 mm 0 mps 670 mmHg 84%
    04:00 +14°C° 0 mm 0 mps 670 mmHg 85%
    05:00 +14°C° 0 mm 0 mps 670 mmHg 86%
    06:00 +15°C° 0 mm 0 mps 671 mmHg 79%
    07:00 +17°C° 0 mm 0 mps 672 mmHg 72%
    08:00 +20°C° 0 mm 1 mps 673 mmHg 66%
    09:00 +23°C° 0 mm 1 mps 673 mmHg 58%
    10:00 +25°C° 0 mm 1 mps 674 mmHg 50%
    11:00 +27°C° 0 mm 1 mps 674 mmHg 42%
    12:00 +28°C° 0 mm 1 mps 673 mmHg 39%
    13:00 +28°C° 0 mm 2 mps 673 mmHg 35%
    14:00 +29°C° 0 mm 2 mps 672 mmHg 32%
    15:00 +28°C° 0 mm 2 mps 672 mmHg 37%
    16:00 +27°C° 0 mm 1 mps 671 mmHg 42%
    17:00 +25°C° 0 mm 1 mps 671 mmHg 47%
    18:00 +24°C° 0 mm 1 mps 671 mmHg 52%
    19:00 +22°C° 0 mm 1 mps 671 mmHg 58%
    20:00 +20°C° 0 mm 1 mps 672 mmHg 64%
    21:00 +19°C° 0 mm 1 mps 671 mmHg 69%
    22:00 +18°C° 0 mm 1 mps 671 mmHg 74%
    23:00 +15°C° 0 mm 0 mps 671 mmHg 80%

    30 April, Tuesday

    Time Temperature Precipitation Wind Pressure Humidity
    00:00 +15°C° 0 mm 0 mps 671 mmHg 82%
    01:00 +14°C° 0 mm 0 mps 671 mmHg 84%
    02:00 +14°C° 0 mm 0 mps 671 mmHg 86%
    03:00 +13°C° 0 mm 0 mps 671 mmHg 88%
    04:00 +13°C° 0 mm 0 mps 671 mmHg 89%
    05:00 +13°C° 0 mm 0 mps 671 mmHg 91%
    06:00 +14°C° 0 mm 0 mps 671 mmHg 83%
    07:00 +16°C° 0 mm 0 mps 672 mmHg 76%
    08:00 +18°C° 0 mm 0 mps 673 mmHg 69%
    09:00 +22°C° 0 mm 1 mps 673 mmHg 60%
    10:00 +24°C° 0 mm 1 mps 673 mmHg 51%
    11:00 +27°C° 0 mm 2 mps 673 mmHg 42%
    12:00 +27°C° 0 mm 2 mps 673 mmHg 38%
    13:00 +28°C° 0 mm 2 mps 672 mmHg 34%
    14:00 +29°C° 0 mm 1 mps 672 mmHg 31%
    15:00 +28°C° 0 mm 1 mps 671 mmHg 36%
    16:00 +26°C° 0 mm 1 mps 671 mmHg 40%
    17:00 +25°C° 0 mm 1 mps 671 mmHg 45%
    18:00 +23°C° 0 mm 1 mps 671 mmHg 52%
    19:00 +21°C° 0 mm 1 mps 671 mmHg 58%
    20:00 +19°C° 0 mm 1 mps 671 mmHg 65%
    21:00 +18°C° 0 mm 1 mps 670 mmHg 74%
    22:00 +18°C° 0 mm 1 mps 670 mmHg 83%
    23:00 +15°C° 0 mm 0 mps 670 mmHg 92%

    1 May, Wednesday

    Time Temperature Precipitation Wind Pressure Humidity
    00:00 +14°C° 0 mm 0 mps 670 mmHg 94%
    01:00 +14°C° 0 mm 0 mps 670 mmHg 95%
    02:00 +14°C° 0 mm 0 mps 670 mmHg 96%
    03:00 +14°C° 0 mm 0 mps 670 mmHg 96%
    04:00 +13°C° 0 mm 0 mps 670 mmHg 97%
    05:00 +13°C° 0 mm 0 mps 670 mmHg 97%
    06:00 +15°C° 0 mm 0 mps 671 mmHg 90%
    07:00 +17°C° 0 mm 0 mps 672 mmHg 84%
    08:00 +18°C° 0 mm 0 mps 672 mmHg 78%
    09:00 +22°C° 0 mm 1 mps 672 mmHg 67%
    10:00 +25°C° 0 mm 1 mps 673 mmHg 57%
    11:00 +27°C° 0 mm 2 mps 673 mmHg 47%
    12:00 +28°C° 0 mm 2 mps 672 mmHg 42%
    13:00 +29°C° 0 mm 1 mps 672 mmHg 38%
    14:00 +30°C° 0 mm 1 mps 671 mmHg 33%
    15:00 +28°C° 0 mm 1 mps 670 mmHg 37%
    16:00 +27°C° 0 mm 1 mps 670 mmHg 41%
    17:00 +25°C° 0 mm 1 mps 670 mmHg 45%
    18:00 +24°C° 0 mm 1 mps 670 mmHg 47%
    19:00 +22°C° 0 mm 1 mps 669 mmHg 49%
    20:00 +20°C° 0 mm 1 mps 669 mmHg 51%
    21:00 +19°C° 0 mm 1 mps 669 mmHg 54%
    22:00 +16°C° 0 mm 0 mps 669 mmHg 58%
    23:00 +16°C° 0 mm 0 mps 669 mmHg 61%
    Show more